Wind_Speed
24 24 24 24 24 24 24 24 24 23 23 23 22 22 22 22 21 21 21 22 23 25 26 25 24 24 24 23 23 23 23 23 22 21 20 19 19 19 19 19 17 16 15
25 24 24 24 24 24 23 23 23 23 22 21 21 21 21 20 20 20 21 22 22 23 24 26 26 26 25 25 25 25 25 26 26 25 24 22 21 20 20 20 20 19 17
25 25 24 23 23 23 22 22 21 21 20 19 18 18 18 18 18 19 19 20 21 22 23 25 27 27 27 26 26 27 27 28 28 28 27 26 25 24 22 21 21 20 19
25 24 23 23 22 22 22 21 20 19 18 16 15 15 15 16 16 16 17 18 19 20 22 24 26 27 28 28 28 28 29 29 30 30 30 30 28 27 25 24 23 23 21
23 23 23 23 23 22 21 20 19 18 17 15 14 14 13 14 15 16 16 17 18 20 21 23 25 27 28 29 30 30 30 31 32 32 33 33 32 31 29 27 26 25 24
22 22 22 23 22 22 21 19 18 18 17 16 15 14 14 14 15 16 17 18 19 20 21 23 25 26 28 30 31 31 31 32 33 33 34 35 35 34 33 31 29 28 27
23 23 23 23 23 22 21 20 19 19 18 17 16 16 16 15 15 16 17 18 20 21 22 22 24 26 28 30 32 32 33 33 33 34 36 36 36 37 36 35 33 32 31
25 25 25 24 23 23 22 21 21 21 20 19 18 18 18 18 17 18 18 20 21 22 23 24 25 26 28 30 32 33 34 35 33 35 35 37 38 38 38 37 37 35 34
25 26 25 25 25 25 24 23 23 23 23 22 21 20 20 19 20 21 21 21 22 23 23 24 25 26 28 29 32 33 34 35 35 35 35 36 38 39 39 38 38 37 36
24 25 26 26 26 26 26 26 25 25 25 25 24 23 22 21 21 22 24 24 23 24 24 25 26 26 28 29 31 32 34 35 35 36 36 36 37 38 40 40 39 38 38
24 25 26 26 26 28 28 28 28 27 27 27 26 25 25 24 23 22 23 26 26 26 25 25 25 26 27 28 30 31 33 34 34 35 36 37 36 37 38 40 39 39 38
29 29 28 28 29 30 31 31 31 30 29 29 28 28 27 27 26 25 24 25 27 28 27 26 25 25 26 27 30 31 32 32 31 32 33 34 36 36 37 38 38 38 38
36 34 33 32 32 33 33 34 34 33 32 32 31 30 30 29 29 28 27 25 25 27 28 28 25 24 25 26 28 29 31 31 30 30 30 30 32 33 34 35 37 37 37
43 42 41 38 38 38 38 38 38 37 36 35 34 33 32 32 31 30 29 27 25 26 28 28 26 23 23 24 26 28 30 30 29 28 27 27 26 28 30 32 32 33 35
48 48 47 46 45 44 44 43 42 41 40 38 37 35 34 34 33 33 31 30 27 25 26 28 26 23 22 23 25 28 29 29 28 28 26 24 24 24 25 27 29 30 31
54 53 52 51 51 50 49 49 48 46 44 42 41 39 37 36 35 34 33 31 29 26 25 26 26 24 22 22 24 27 28 29 28 27 26 25 25 26 27 28 29 29 29
59 58 58 57 56 55 54 53 52 51 49 47 45 43 41 39 36 35 33 32 31 28 25 25 26 24 22 21 23 26 28 29 28 28 27 27 27 27 27 28 28 28 29
64 63 63 62 61 59 58 57 55 54 52 50 48 46 44 41 39 37 35 33 32 29 26 25 25 24 22 21 22 24 26 28 28 28 28 28 28 27 28 28 29 30 30
63 65 66 66 65 64 62 60 58 56 54 51 49 47 46 43 40 38 36 34 33 30 27 26 25 24 22 21 22 23 25 27 28 29 29 29 28 28 28 28 29 31 31
56 60 63 65 67 67 66 64 62 59 56 53 50 48 46 44 41 39 37 35 33 30 28 26 24 23 22 21 21 22 24 25 27 28 28 28 28 27 27 28 28 29 29
44 48 52 56 60 63 65 67 66 63 59 55 52 49 46 44 41 39 38 36 34 31 28 26 24 22 21 20 20 20 21 23 24 25 26 26 26 27 27 26 26 27 27
35 37 40 44 48 53 57 60 63 64 63 59 55 51 47 45 42 40 38 35 33 31 28 25 24 22 20 19 18 19 19 21 23 23 23 24 24 24 25 24 24 25 25
32 32 32 34 37 41 45 50 54 59 61 61 59 54 49 46 44 41 38 35 33 30 28 25 23 22 20 19 18 18 19 20 21 21 22 22 22 21 22 23 22 22 22
33 31 30 30 31 33 36 40 44 49 54 58 59 57 53 48 45 42 39 36 33 30 27 25 23 21 20 19 19 18 19 20 20 20 20 21 20 20 20 20 19 18 19
35 33 31 29 29 29 30 32 36 39 45 51 55 56 54 50 46 43 40 36 33 30 26 24 22 21 20 19 18 18 18 17 17 18 18 18 18 18 17 17 17 16 17
38 35 33 31 29 27 27 27 29 32 37 43 49 51 51 50 47 44 40 36 33 29 25 23 21 20 19 18 17 17 18 18 18 17 17 16 16 17 17 16 16 16 16
Wind_Direction
279 281 279 277 275 274 275 275 274 274 275 276 276 275 275 276 277 277 278 276 272 269 261 255 252 247 245 242 241 242 241 240 240 240 241 240 238 237 240 240 241 244 247
276 276 275 275 274 272 271 269 269 270 271 272 272 272 273 274 275 276 275 276 276 273 265 259 258 251 245 243 242 241 241 240 239 238 239 240 238 237 238 238 239 240 243
276 276 276 276 274 272 270 268 266 266 267 268 269 270 273 275 277 278 277 277 276 272 269 267 262 254 249 245 243 240 240 239 239 238 237 237 238 237 238 237 237 237 240
277 277 278 277 275 271 269 267 265 264 264 265 267 271 275 280 282 283 283 282 280 276 272 268 261 256 252 248 246 242 240 240 239 239 237 236 237 238 237 238 236 237 239
277 277 276 274 272 269 267 264 261 259 259 261 265 270 276 281 286 288 289 289 288 285 278 271 264 259 254 250 248 245 242 240 239 239 238 237 236 237 237 238 237 237 238
282 278 274 270 268 265 262 260 258 256 255 257 261 267 274 281 287 291 293 296 295 291 286 278 270 263 258 252 248 245 241 240 239 239 239 238 237 236 236 237 238 238 238
283 277 273 268 264 261 258 256 256 255 254 255 259 265 272 279 286 291 295 298 297 294 289 283 274 266 261 254 249 244 242 240 239 238 238 237 237 236 236 237 239 239 240
281 276 272 265 260 257 254 252 253 255 255 256 259 265 272 279 284 289 295 298 299 297 293 286 279 270 263 256 250 247 243 241 239 238 237 236 236 236 236 237 239 240 241
277 272 267 262 257 254 253 252 254 255 256 257 258 263 269 275 283 289 294 297 299 299 295 289 282 275 267 259 254 249 245 242 240 239 237 236 236 236 236 237 238 240 241
277 269 264 260 257 253 252 253 254 256 258 260 261 262 266 270 276 286 293 297 299 299 296 291 284 277 271 262 256 252 248 244 241 240 237 237 237 238 237 237 239 240 241
275 270 264 260 258 255 253 254 254 256 258 261 263 266 268 271 274 279 287 295 299 300 298 294 287 279 272 264 256 252 248 245 243 240 237 237 237 238 237 237 238 240 241
271 270 265 259 257 256 255 256 256 257 258 260 263 266 270 273 277 279 283 289 296 299 300 297 292 281 273 265 258 252 247 244 243 241 238 237 237 238 238 238 238 240 242
268 265 263 259 257 256 255 256 257 258 259 261 263 266 269 272 276 279 282 285 291 295 297 298 295 285 274 265 259 253 246 242 242 242 242 239 238 238 238 238 239 239 242
267 264 261 259 256 255 255 255 256 258 260 262 263 265 268 271 274 278 281 284 288 292 294 296 294 287 275 265 257 251 246 241 239 241 242 241 239 238 239 239 239 240 241
267 264 262 259 256 254 254 253 254 256 259 261 263 264 267 269 272 275 279 283 285 288 291 294 293 287 277 265 254 247 243 241 238 238 240 241 240 239 239 239 240 239 240
266 264 262 260 258 256 254 253 253 254 256 258 261 262 264 267 269 272 275 280 283 285 288 290 291 288 278 266 254 246 242 239 237 236 237 237 239 240 242 243 239 238 241
265 263 261 260 258 257 255 254 253 254 254 256 257 260 262 264 265 268 271 276 280 282 286 287 287 287 279 266 255 246 241 238 236 236 237 237 239 241 241 241 240 241 244
263 261 260 259 258 257 256 255 254 253 253 253 255 256 258 261 262 263 266 271 275 278 282 285 284 284 278 267 257 247 241 238 236 235 236 237 240 243 243 243 244 245 245
262 259 257 256 255 255 254 254 253 252 252 252 252 253 254 257 258 259 261 266 269 273 277 282 282 281 277 266 256 246 241 238 236 236 237 239 242 244 245 246 247 247 247
261 258 256 254 252 252 251 251 251 250 250 249 250 250 251 252 254 255 257 261 264 267 272 276 279 277 275 264 254 247 241 238 237 237 238 240 242 244 246 247 246 247 247
266 261 257 253 251 250 249 248 248 247 247 246 246 247 247 247 249 250 253 256 259 262 267 271 273 274 272 262 253 246 241 236 236 238 239 241 242 244 246 246 246 246 246
272 266 261 257 253 251 249 247 246 245 244 243 242 243 243 243 244 246 249 252 254 257 262 265 267 270 266 259 250 244 241 238 236 236 239 241 242 242 243 242 243 244 243
275 271 266 261 256 253 251 248 246 244 242 240 239 238 239 239 240 242 244 245 248 253 258 261 263 265 261 252 247 244 241 240 237 238 240 239 239 239 240 238 239 239 238
271 270 267 264 259 256 253 250 247 244 240 238 236 235 235 235 236 238 238 239 243 249 253 255 256 258 257 250 245 243 241 239 237 237 238 239 238 238 237 234 230 232 232
268 266 264 264 261 257 255 252 249 245 240 235 232 230 230 231 232 233 232 234 239 244 249 250 251 252 250 245 243 239 238 237 236 235 235 235 231 229 229 228 227 226 225
263 262 261 261 259 256 254 253 250 246 239 231 226 223 223 224 226 227 227 230 233 238 241 243 245 245 243 240 238 234 233 233 229 226 226 226 226 224 222 221 216 211 209
Height
5861 5860 5860 5860 5859 5859 5858 5858 5857 5857 5857 5857 5856 5856 5856 5855 5854 5854 5853 5852 5852 5852 5851 5851 5851 5854 5856 5858 5860 5862 5864 5866 5868 5870 5872 5874 5875 5877 5879 5882 5883 5885 5887
5855 5854 5853 5853 5852 5852 5852 5852 5852 5852 5852 5851 5851 5851 5850 5850 5849 5849 5848 5847 5846 5846 5846 5846 5846 5848 5849 5851 5854 5856 5858 5860 5863 5865 5867 5869 5871 5873 5875 5877 5879 5881 5883
5848 5847 5846 5845 5845 5845 5845 5845 5846 5846 5846 5846 5846 5845 5845 5844 5844 5843 5843 5842 5841 5840 5840 5840 5841 5842 5843 5844 5847 5849 5852 5854 5856 5859 5861 5864 5866 5868 5870 5872 5875 5877 5879
5841 5840 5839 5839 5838 5838 5839 5839 5839 5840 5840 5841 5841 5841 5840 5839 5838 5838 5837 5837 5836 5835 5834 5834 5835 5835 5836 5838 5839 5842 5844 5847 5850 5852 5855 5857 5860 5863 5865 5868 5870 5872 5874
5835 5835 5833 5833 5833 5833 5833 5833 5833 5834 5835 5836 5836 5836 5835 5834 5833 5832 5832 5831 5830 5830 5829 5828 5828 5828 5829 5830 5832 5834 5836 5839 5842 5845 5848 5850 5854 5857 5859 5862 5864 5867 5869
5828 5828 5828 5827 5827 5827 5827 5827 5828 5829 5830 5831 5831 5831 5831 5830 5829 5827 5826 5825 5824 5823 5822 5822 5821 5821 5822 5823 5824 5826 5828 5831 5834 5837 5840 5843 5846 5849 5852 5856 5858 5861 5864
5821 5821 5821 5821 5821 5821 5822 5822 5823 5824 5825 5826 5826 5826 5826 5825 5824 5823 5821 5819 5818 5817 5816 5815 5815 5815 5815 5815 5817 5818 5820 5822 5825 5828 5831 5834 5838 5841 5845 5848 5851 5854 5857
5815 5815 5815 5815 5815 5816 5816 5817 5817 5818 5819 5820 5821 5821 5821 5820 5819 5818 5816 5814 5812 5810 5809 5808 5807 5807 5807 5808 5809 5810 5812 5814 5816 5819 5822 5825 5829 5833 5836 5840 5844 5847 5850
5808 5808 5808 5808 5808 5809 5810 5810 5811 5812 5813 5814 5815 5815 5815 5815 5814 5812 5810 5808 5806 5804 5802 5800 5800 5799 5799 5800 5801 5802 5804 5806 5808 5810 5813 5817 5820 5824 5828 5832 5836 5839 5842
5801 5801 5800 5800 5801 5801 5802 5803 5804 5805 5806 5807 5807 5808 5809 5809 5809 5807 5804 5802 5800 5797 5795 5793 5792 5792 5792 5792 5793 5795 5797 5799 5800 5802 5805 5808 5812 5816 5819 5823 5827 5831 5834
5794 5793 5792 5792 5793 5793 5794 5795 5796 5796 5798 5799 5799 5800 5800 5801 5802 5802 5800 5796 5793 5791 5789 5787 5785 5784 5784 5784 5785 5787 5789 5790 5792 5794 5798 5800 5804 5807 5810 5814 5818 5822 5826
5785 5785 5784 5784 5784 5784 5785 5785 5786 5788 5789 5790 5791 5791 5792 5793 5793 5794 5794 5791 5788 5784 5781 5780 5778 5777 5776 5776 5777 5779 5781 5782 5784 5787 5790 5793 5796 5799 5801 5805 5810 5813 5817
5774 5774 5775 5775 5775 5775 5775 5776 5777 5778 5779 5781 5782 5783 5783 5784 5785 5785 5785 5785 5783 5779 5775 5772 5771 5770 5769 5769 5769 5770 5773 5775 5778 5780 5783 5785 5788 5791 5794 5797 5801 5805 5809
5761 5761 5761 5762 5763 5764 5765 5766 5767 5768 5769 5771 5772 5773 5774 5775 5776 5776 5777 5777 5776 5773 5769 5766 5764 5762 5762 5761 5761 5763 5766 5768 5771 5774 5776 5778 5781 5784 5787 5790 5794 5797 5801
5745 5746 5746 5747 5749 5750 5752 5753 5755 5757 5758 5760 5762 5763 5765 5766 5767 5767 5768 5768 5768 5767 5764 5760 5757 5756 5755 5754 5754 5756 5758 5761 5764 5767 5769 5772 5775 5778 5781 5784 5786 5790 5793
5727 5728 5729 5731 5733 5735 5737 5739 5742 5744 5746 5749 5751 5753 5755 5756 5758 5759 5759 5759 5759 5759 5758 5754 5751 5749 5748 5747 5748 5749 5752 5754 5758 5761 5764 5766 5769 5772 5774 5777 5780 5783 5786
5706 5708 5710 5712 5715 5717 5720 5723 5726 5730 5733 5736 5739 5741 5744 5746 5748 5749 5750 5751 5750 5750 5750 5748 5745 5743 5742 5741 5741 5743 5745 5748 5751 5754 5757 5760 5763 5765 5767 5770 5773 5775 5778
5683 5686 5688 5691 5694 5698 5701 5705 5709 5713 5717 5722 5725 5729 5732 5735 5738 5740 5741 5742 5742 5742 5743 5741 5739 5737 5736 5735 5735 5736 5739 5741 5744 5747 5750 5753 5756 5758 5761 5763 5766 5768 5771
5658 5661 5664 5668 5673 5677 5681 5686 5691 5696 5701 5706 5711 5715 5720 5724 5727 5730 5732 5734 5734 5735 5735 5734 5733 5731 5729 5729 5729 5730 5732 5735 5738 5741 5744 5746 5749 5751 5754 5756 5758 5761 5763
5632 5635 5639 5644 5649 5654 5659 5665 5671 5678 5684 5690 5696 5702 5707 5712 5716 5719 5722 5724 5726 5727 5727 5727 5726 5725 5723 5723 5723 5724 5726 5729 5731 5734 5737 5740 5742 5744 5747 5749 5751 5753 5755
5612 5614 5617 5620 5625 5630 5637 5643 5650 5658 5666 5674 5681 5687 5693 5699 5704 5708 5712 5714 5716 5718 5719 5720 5719 5718 5717 5717 5718 5719 5720 5723 5725 5728 5730 5733 5735 5738 5740 5742 5744 5746 5748
5597 5598 5599 5602 5606 5610 5615 5621 5629 5637 5646 5655 5664 5672 5679 5686 5691 5697 5701 5704 5707 5710 5711 5712 5713 5712 5712 5711 5712 5713 5715 5717 5719 5722 5724 5726 5729 5731 5733 5735 5737 5739 5741
5586 5586 5587 5588 5591 5594 5598 5603 5609 5617 5626 5636 5646 5656 5664 5672 5679 5685 5690 5694 5698 5701 5704 5705 5706 5706 5706 5706 5707 5708 5710 5712 5714 5716 5718 5720 5723 5725 5727 5729 5731 5733 5734
5575 5575 5576 5577 5579 5581 5583 5587 5592 5599 5607 5616 5627 5639 5649 5658 5666 5673 5679 5685 5689 5693 5695 5697 5699 5699 5700 5700 5701 5703 5704 5706 5708 5710 5712 5715 5717 5719 5721 5723 5725 5727 5729
5563 5564 5566 5567 5568 5570 5572 5575 5579 5584 5591 5599 5610 5621 5633 5644 5654 5662 5669 5675 5680 5684 5687 5690 5691 5692 5693 5694 5696 5697 5699 5700 5702 5704 5707 5709 5711 5714 5716 5718 5720 5722 5724
5550 5552 5554 5556 5558 5560 5562 5564 5568 5572 5578 5585 5595 5606 5619 5630 5640 5649 5658 5665 5671 5676 5680 5683 5684 5686 5687 5688 5690 5691 5694 5696 5697 5700 5702 5705 5707 5710 5712 5714 5716 5718 5721